• In Österreich
  • Länderverzeichnis
  • Für 7 Tage
  • Wassertemperatur
  • Satellitenkarten
  • Wetterkarte
  • News
  • Widgets
  • user-avatar
    Anmelden

    Stündliche Wetter Tarfaya

    Heute, 19 September, Mittwoch

    Zeit Temperatur Niederschläge Wind Luftdruck Luftfeuchtigkeit
    00:00 +24°C° 0 mm 6 m/S 760 mmHg 82%
    01:00 +24°C° 0 mm 6 m/S 760 mmHg 81%
    02:00 +25°C° 0 mm 5 m/S 760 mmHg 81%
    03:00 +25°C° 0 mm 5 m/S 760 mmHg 82%
    04:00 +25°C° 0 mm 5 m/S 760 mmHg 82%
    05:00 +23°C° 0 mm 4 m/S 760 mmHg 86%
    06:00 +25°C° 0 mm 4 m/S 760 mmHg 82%
    07:00 +26°C° 0 mm 4 m/S 760 mmHg 78%
    08:00 +27°C° 0 mm 5 m/S 761 mmHg 74%
    09:00 +29°C° 0 mm 5 m/S 761 mmHg 66%
    10:00 +30°C° 0 mm 5 m/S 761 mmHg 58%
    11:00 +33°C° 0 mm 5 m/S 761 mmHg 50%
    12:00 +34°C° 0 mm 5 m/S 761 mmHg 48%
    13:00 +35°C° 0 mm 5 m/S 761 mmHg 45%
    14:00 +36°C° 0 mm 5 m/S 760 mmHg 42%
    15:00 +35°C° 0 mm 6 m/S 760 mmHg 47%
    16:00 +33°C° 0 mm 6 m/S 760 mmHg 52%
    17:00 +32°C° 0 mm 6 m/S 760 mmHg 57%
    18:00 +30°C° 0 mm 6 m/S 761 mmHg 61%
    19:00 +29°C° 0 mm 6 m/S 761 mmHg 65%
    20:00 +28°C° 0 mm 6 m/S 761 mmHg 69%
    21:00 +27°C° 0 mm 6 m/S 761 mmHg 70%
    22:00 +27°C° 0 mm 5 m/S 761 mmHg 72%
    23:00 +27°C° 0 mm 5 m/S 761 mmHg 73%

    Morgen, 20 September, Donnerstag

    Zeit Temperatur Niederschläge Wind Luftdruck Luftfeuchtigkeit
    00:00 +26°C° 0 mm 5 m/S 761 mmHg 74%
    01:00 +26°C° 0 mm 5 m/S 761 mmHg 76%
    02:00 +26°C° 0 mm 5 m/S 761 mmHg 77%
    03:00 +25°C° 0 mm 5 m/S 761 mmHg 79%
    04:00 +25°C° 0 mm 5 m/S 761 mmHg 81%
    05:00 +25°C° 0 mm 5 m/S 761 mmHg 83%
    06:00 +26°C° 0 mm 4 m/S 761 mmHg 79%
    07:00 +26°C° 0 mm 4 m/S 762 mmHg 76%
    08:00 +27°C° 0 mm 4 m/S 762 mmHg 72%
    09:00 +28°C° 0 mm 4 m/S 762 mmHg 64%
    10:00 +30°C° 0 mm 5 m/S 762 mmHg 56%
    11:00 +33°C° 0 mm 6 m/S 762 mmHg 48%
    12:00 +33°C° 0 mm 6 m/S 762 mmHg 47%
    13:00 +33°C° 0 mm 6 m/S 761 mmHg 45%
    14:00 +34°C° 0 mm 6 m/S 761 mmHg 44%
    15:00 +32°C° 0 mm 6 m/S 761 mmHg 49%
    16:00 +30°C° 0 mm 6 m/S 761 mmHg 54%
    17:00 +29°C° 0 mm 6 m/S 761 mmHg 60%
    18:00 +28°C° 0 mm 6 m/S 761 mmHg 66%
    19:00 +27°C° 0 mm 6 m/S 762 mmHg 72%
    20:00 +24°C° 0 mm 6 m/S 762 mmHg 79%
    21:00 +24°C° 0 mm 6 m/S 762 mmHg 80%
    22:00 +24°C° 0 mm 6 m/S 762 mmHg 81%
    23:00 +23°C° 0 mm 6 m/S 762 mmHg 83%

    übermorgen, 21 September, Freitag

    Zeit Temperatur Niederschläge Wind Luftdruck Luftfeuchtigkeit
    00:00 +23°C° 0 mm 6 m/S 761 mmHg 85%
    01:00 +23°C° 0 mm 6 m/S 761 mmHg 86%
    02:00 +22°C° 0 mm 6 m/S 760 mmHg 88%
    03:00 +22°C° 0 mm 6 m/S 760 mmHg 90%
    04:00 +22°C° 0 mm 6 m/S 760 mmHg 91%
    05:00 +22°C° 0 mm 6 m/S 760 mmHg 92%
    06:00 +22°C° 0 mm 6 m/S 761 mmHg 87%
    07:00 +23°C° 0 mm 6 m/S 761 mmHg 82%
    08:00 +24°C° 0 mm 6 m/S 761 mmHg 77%
    09:00 +27°C° 0 mm 6 m/S 761 mmHg 66%
    10:00 +29°C° 0 mm 6 m/S 761 mmHg 55%
    11:00 +30°C° 0 mm 6 m/S 761 mmHg 44%
    12:00 +32°C° 0 mm 7 m/S 761 mmHg 44%
    13:00 +32°C° 0 mm 7 m/S 760 mmHg 44%
    14:00 +32°C° 0 mm 7 m/S 760 mmHg 44%
    15:00 +30°C° 0 mm 7 m/S 760 mmHg 50%
    16:00 +28°C° 0 mm 7 m/S 760 mmHg 56%
    17:00 +27°C° 0 mm 7 m/S 760 mmHg 62%
    18:00 +27°C° 0 mm 7 m/S 760 mmHg 67%
    19:00 +26°C° 0 mm 7 m/S 761 mmHg 73%
    20:00 +24°C° 0 mm 6 m/S 761 mmHg 78%
    21:00 +24°C° 0 mm 6 m/S 761 mmHg 81%
    22:00 +23°C° 0 mm 6 m/S 761 mmHg 84%
    23:00 +23°C° 0 mm 5 m/S 761 mmHg 87%

    22 September, Samstag

    Zeit Temperatur Niederschläge Wind Luftdruck Luftfeuchtigkeit
    00:00 +23°C° 0 mm 6 m/S 761 mmHg 87%
    01:00 +23°C° 0 mm 6 m/S 760 mmHg 87%
    02:00 +22°C° 0 mm 6 m/S 760 mmHg 88%
    03:00 +23°C° 0 mm 6 m/S 760 mmHg 87%
    04:00 +23°C° 0 mm 6 m/S 760 mmHg 86%
    05:00 +23°C° 0 mm 6 m/S 760 mmHg 85%
    06:00 +23°C° 0 mm 6 m/S 760 mmHg 83%
    07:00 +23°C° 0 mm 6 m/S 761 mmHg 81%
    08:00 +24°C° 0 mm 6 m/S 761 mmHg 79%
    09:00 +26°C° 0 mm 6 m/S 761 mmHg 72%
    10:00 +28°C° 0 mm 6 m/S 761 mmHg 65%
    11:00 +29°C° 0 mm 6 m/S 761 mmHg 59%
    12:00 +30°C° 0 mm 6 m/S 760 mmHg 57%
    13:00 +30°C° 0 mm 6 m/S 760 mmHg 56%
    14:00 +32°C° 0 mm 6 m/S 760 mmHg 55%
    15:00 +30°C° 0 mm 6 m/S 760 mmHg 60%
    16:00 +28°C° 0 mm 6 m/S 760 mmHg 65%
    17:00 +27°C° 0 mm 6 m/S 760 mmHg 71%
    18:00 +27°C° 0 mm 6 m/S 760 mmHg 74%
    19:00 +26°C° 0 mm 5 m/S 761 mmHg 77%
    20:00 +25°C° 0 mm 5 m/S 761 mmHg 81%
    21:00 +25°C° 0 mm 5 m/S 761 mmHg 82%
    22:00 +25°C° 0 mm 5 m/S 761 mmHg 84%
    23:00 +25°C° 0 mm 5 m/S 761 mmHg 85%

    23 September, Sonntag

    Zeit Temperatur Niederschläge Wind Luftdruck Luftfeuchtigkeit
    00:00 +25°C° 0 mm 5 m/S 760 mmHg 86%
    01:00 +23°C° 0 mm 5 m/S 760 mmHg 87%
    02:00 +23°C° 0 mm 5 m/S 759 mmHg 88%
    03:00 +23°C° 0 mm 5 m/S 759 mmHg 88%
    04:00 +23°C° 0 mm 5 m/S 760 mmHg 88%
    05:00 +23°C° 0 mm 4 m/S 760 mmHg 87%
    06:00 +25°C° 0 mm 4 m/S 760 mmHg 85%
    07:00 +25°C° 0 mm 4 m/S 760 mmHg 82%
    08:00 +26°C° 0 mm 3 m/S 760 mmHg 79%
    09:00 +28°C° 0 mm 3 m/S 760 mmHg 68%
    10:00 +30°C° 0 mm 3 m/S 760 mmHg 58%
    11:00 +33°C° 0 mm 3 m/S 760 mmHg 47%
    12:00 +34°C° 0 mm 4 m/S 760 mmHg 46%
    13:00 +35°C° 0 mm 5 m/S 759 mmHg 44%
    14:00 +36°C° 0 mm 6 m/S 759 mmHg 42%
    15:00 +34°C° 0 mm 6 m/S 759 mmHg 50%
    16:00 +33°C° 0 mm 6 m/S 759 mmHg 57%
    17:00 +30°C° 0 mm 7 m/S 759 mmHg 64%
    18:00 +29°C° 0 mm 7 m/S 759 mmHg 64%
    19:00 +29°C° 0 mm 6 m/S 760 mmHg 64%
    20:00 +28°C° 0 mm 6 m/S 760 mmHg 63%
    21:00 +28°C° 0 mm 6 m/S 760 mmHg 62%
    22:00 +28°C° 0 mm 6 m/S 760 mmHg 61%
    23:00 +28°C° 0 mm 6 m/S 760 mmHg 59%

    24 September, Montag

    Zeit Temperatur Niederschläge Wind Luftdruck Luftfeuchtigkeit
    00:00 +28°C° 0 mm 6 m/S 760 mmHg 59%
    01:00 +28°C° 0 mm 6 m/S 759 mmHg 58%
    02:00 +28°C° 0 mm 6 m/S 759 mmHg 58%
    03:00 +27°C° 0 mm 6 m/S 759 mmHg 59%
    04:00 +27°C° 0 mm 6 m/S 759 mmHg 60%
    05:00 +27°C° 0 mm 6 m/S 759 mmHg 61%
    06:00 +28°C° 0 mm 6 m/S 760 mmHg 57%
    07:00 +29°C° 0 mm 6 m/S 760 mmHg 53%
    08:00 +30°C° 0 mm 6 m/S 760 mmHg 49%
    09:00 +33°C° 0 mm 6 m/S 760 mmHg 44%
    10:00 +35°C° 0 mm 6 m/S 760 mmHg 39%
    11:00 +36°C° 0 mm 7 m/S 760 mmHg 34%
    12:00 +36°C° 0 mm 7 m/S 760 mmHg 36%
    13:00 +37°C° 0 mm 8 m/S 759 mmHg 38%
    14:00 +37°C° 0 mm 8 m/S 759 mmHg 40%
    15:00 +35°C° 0 mm 8 m/S 759 mmHg 43%
    16:00 +33°C° 0 mm 8 m/S 759 mmHg 47%
    17:00 +32°C° 0 mm 8 m/S 759 mmHg 50%
    18:00 +31°C° 0 mm 8 m/S 759 mmHg 55%
    19:00 +29°C° 0 mm 8 m/S 760 mmHg 60%
    20:00 +28°C° 0 mm 8 m/S 760 mmHg 64%
    21:00 +27°C° 0 mm 8 m/S 760 mmHg 67%
    22:00 +27°C° 0 mm 8 m/S 760 mmHg 69%
    23:00 +26°C° 0 mm 8 m/S 760 mmHg 72%
    Mehr zeigen